CDT,Max TemperatureF,Mean TemperatureF,Min TemperatureF,Max Dew PointF,MeanDew PointF,Min DewpointF,Max Humidity, Mean Humidity, Min Humidity, Max Sea Level PressureIn, Mean Sea Level PressureIn, Min Sea Level PressureIn, Max VisibilityMiles, Mean VisibilityMiles, Min VisibilityMiles, Max Wind SpeedMPH, Mean Wind SpeedMPH, Max Gust SpeedMPH,PrecipitationIn, CloudCover, Events, WindDirDegrees
2013-4-1,82,64,45,54,45,42,87,52,24,30.07,29.99,29.89,10,10,7,15,4,23,0.05,1,Rain,110
2013-4-2,66,54,43,57,47,42,96,84,67,30.05,29.99,29.89,10,9,2,16,11,32,0.14,6,Rain,354
2013-4-3,45,42,40,43,42,39,97,94,90,30.18,30.10,30.01,10,8,2,17,10,22,0.16,8,Rain,346
2013-4-4,48,43,38,39,37,36,96,83,67,30.23,30.18,30.15,10,10,5,14,8,20,0.00,7,,326
2013-4-5,71,51,31,47,39,31,100,69,34,30.24,30.13,29.96,10,9,5,14,4,23,0.00,0,,143
2013-4-6,83,70,56,55,47,45,69,50,27,29.95,29.85,29.77,10,10,10,21,11,29,0.00,0,,158
2013-4-7,82,70,57,62,58,55,92,69,47,29.83,29.75,29.62,10,10,10,22,10,31,0.00,1,,141
2013-4-8,80,72,64,64,61,60,85,72,52,29.69,29.64,29.56,10,10,10,22,13,30,0.00,4,,154
2013-4-9,86,63,40,64,58,34,80,65,42,29.81,29.61,29.54,10,10,7,23,16,37,0.00,4,,145
2013-4-10,48,40,32,37,33,30,96,82,58,30.06,29.96,29.81,10,8,2,24,15,34,0.59,6,Rain-Snow,322
2013-4-11,64,49,34,37,32,25,92,59,28,30.01,29.90,29.79,10,10,10,10,2,,0.00,0,,302
2013-4-12,79,60,43,45,41,35,85,50,23,29.98,29.89,29.83,10,10,10,13,4,21,0.00,0,,108
2013-4-13,81,68,55,46,41,34,68,43,18,29.95,29.87,29.72,10,10,10,16,8,24,0.00,0,,137
2013-4-14,93,76,59,63,47,31,78,46,11,29.75,29.59,29.48,10,10,10,16,10,28,0.00,0,,170
2013-4-15,94,78,62,64,54,40,76,43,29,29.69,29.63,29.54,10,10,10,17,9,25,0.00,1,,169
2013-4-16,89,78,67,65,63,61,88,64,39,29.87,29.79,29.69,10,8,4,15,9,22,0.00,1,,140
2013-4-17,86,78,71,68,66,64,85,70,48,29.83,29.69,29.53,10,8,5,26,16,38,0.00,5,,146
2013-4-18,74,58,41,67,37,28,93,62,36,30.18,29.95,29.55,10,10,2,36,19,44,0.24,4,Rain,323
2013-4-19,66,49,32,31,25,19,92,44,18,30.30,30.20,30.11,10,10,10,16,5,22,0.00,0,,298
2013-4-20,73,59,46,32,27,22,53,32,17,30.14,30.05,29.94,10,10,10,22,9,31,0.00,0,,144
2013-4-21,72,62,52,50,46,32,76,57,38,30.15,30.06,30.01,10,10,10,21,11,28,0.00,2,,135
2013-4-22,83,68,54,56,53,48,86,57,34,30.07,29.92,29.76,10,10,10,20,10,30,0.00,0,,147
2013-4-23,71,56,39,57,40,32,91,72,57,30.24,30.02,29.73,10,10,3,21,15,30,0.00,6,,326
2013-4-24,63,48,32,32,27,23,82,49,24,30.35,30.27,30.19,10,10,10,20,10,25,0.00,2,,359
2013-4-25,75,60,45,43,34,25,65,40,16,30.33,30.23,30.09,10,10,10,16,4,23,0.00,4,,121
2013-4-26,83,72,61,61,53,43,76,57,42,30.14,30.02,29.91,10,10,10,18,8,26,0.00,5,,143
2013-4-27,80,68,57,61,51,42,87,59,25,30.16,30.06,30.00,10,10,10,16,7,22,0.00,2,,350
2013-4-28,89,69,49,62,53,45,97,60,22,30.02,29.93,29.81,10,10,7,14,3,18,0.00,0,,145
2013-4-29,90,74,60,59,53,39,86,48,17,29.88,29.82,29.73,10,10,10,16,8,24,0.00,0,,154
2013-4-30,89,74,60,60,57,51,90,58,27,29.81,29.74,29.68,10,10,10,17,10,25,0.00,0,,142